Location: Vancouver
(49.2500°N, 123.1330°W)
Time: 08:42:32
(UTC-07:00)

Cosmos 676 Rocket - Visible Passes

Search period start: 24 June 2017 00:00
Search period end: 04 July 2017 00:00
Orbit: 755 x 783 km, 74.0° (Epoch: 23 June)

Date Brightness Start Highest point End Pass type
(mag) Time Alt. Az. Time Alt. Az. Time Alt. Az.
24 Jun 6.4 22:46:30 10° WSW 22:50:50 26° NW 22:55:10 10° N visible
25 Jun 5.7 22:09:08 10° SW 22:13:58 37° WNW 22:18:49 10° N visible
26 Jun 7.3 23:18:14 10° WNW 23:20:32 13° NW 23:22:49 10° NNW visible
27 Jun 7.0 22:39:56 10° W 22:43:27 18° NW 22:46:59 10° N visible
28 Jun 7.8 03:57:30 10° NNE 03:58:48 11° NE 04:00:06 10° NE visible
28 Jun 6.7 22:02:11 10° WSW 22:06:29 25° NW 22:10:48 10° N visible
30 Jun 7.0 04:24:36 10° N 04:28:36 22° NE 04:32:35 10° E visible
30 Jun 7.6 22:33:56 10° WNW 22:36:11 13° NW 22:38:27 10° NNW visible
01 Jul 7.2 03:48:32 10° N 03:51:35 15° NE 03:54:37 10° E visible
01 Jul 7.3 21:55:38 10° W 21:59:07 18° NW 22:02:37 10° N visible
02 Jul 7.6 03:13:06 10° NNE 03:14:28 11° NE 03:15:50 10° NE visible
03 Jul 6.1 04:16:31 10° N 04:21:09 31° NE 04:25:47 10° ESE visible
